{"data":{"norad_id":43768,"intl_designator":"2018-099L","name":"AISTECHSAT 2","alt_names":[],"object_type":"PAYLOAD","status":"ACTIVE","operator":null,"country":"SPN","launch_date":"2018-12-03","launch_site_code":"AFWTR","launch_vehicle":null,"mission":null,"orbit_class":"UNKNOWN","rcs_meters":null,"size_class":null,"mass_kg":null,"dimensions":null,"purposes":[],"wikipedia_slug":null,"has_3d_model":false,"image_url":null,"decayed_at":null,"tle_current":{"epoch":"2026-05-25T02:36:53.489088Z","epoch_age_seconds":65402,"freshness":"FRESH","line1":"1 43768U 18099L   26145.10895242  .00004485  00000+0  24247-3 0  9996","line2":"2 43768  97.4311 193.6505 0005370  38.4715 321.6899 15.15172521408782","mean_motion":15.15172521,"eccentricity":0.000537,"inclination_deg":97.4311,"raan_deg":193.6505,"arg_perigee_deg":38.4715,"mean_anomaly_deg":321.6899,"bstar":0.00024247,"rev_number":40878,"period_min":95.038682397013,"perigee_km":516.75030691569,"apogee_km":524.15939456339,"semimajor_km":6898.5918507395,"source":"CELESTRAK","updated_at":"2026-05-25T13:37:55.894235Z"}}}